[[{"header":{"parameterUnit":"m.s-1","parameterCategory":1,"la1":30.2991,"la2":30.254,"lo1":-89.0895,"lo2":-89.0444,"dy":0.0017,"dx":0.0017,"nx":28,"ny":28,"refTime":"2024-06-06T21:00:00:Z","depth":0,"parameterNumber":2,"parameterNumberName":"U-component_of_WINDS"},"data":[0,0,0,0,0,0,0,0,0,0,0,0,0,0,0,0,0,0,0,0,0,0,0,0,0,0,0,0,0,0,0,0,0,0,0,0,0,0,0,0,0,0,0,0,0,0,0,0,0,0,0,0,0,0,0,0,0,0,0.3129,0.3131,0,0.328,0.3282,0.3284,0.3321,0.332,0.3319,0.3318,0.3475,0.348,0.3485,0,0,0,0,0,0,0,0,0,0,0,0,0,0.2874,0.2879,0.3129,0.3131,0.3133,0.328,0.3282,0.3284,0.3321,0.332,0.3319,0.3318,0.3474,0.348,0.3486,0,0,0,0,0,0,0,0,0,0,0,0,0,0.3001,0.288,0.3129,0.3169,0.3174,0.3279,0.3282,0.3285,0.3321,0.332,0.3318,0.3317,0.3472,0.3479,0.3487,0.3563,0,0,0.351,0.3513,0,0,0,0,0,0,0,0,0.2994,0.301,0.3161,0.3166,0.3172,0.328,0.325,0.3378,0.3322,0.3266,0.3318,0.3316,0.3412,0.3424,0.3456,0.3571,0.3578,0.3511,0.3515,0.3519,0.3521,0,0,0,0,0,0,0,0.2985,0.3004,0.3189,0.3163,0.317,0.318,0.3196,0.3274,0.3345,0.327,0.3273,0.3291,0.3415,0.3448,0.346,0.358,0.3511,0.3517,0.3522,0.3525,0.3764,0.3765,0,0,0,0,0,0,0.2969,0.2996,0.3184,0.3193,0.3077,0.3186,0.3204,0.3247,0.3344,0.3358,0.3292,0.3292,0.3436,0.3451,0.3466,0.3561,0.3519,0.3526,0.353,0.3762,0.3764,0.3766,0,0,0,0,0,0,0.2963,0.2985,0.3178,0.3096,0.3121,0.3192,0.324,0.3251,0.3285,0.3361,0.3374,0.3313,0.3436,0.3455,0.3538,0.3567,0.3529,0.3536,0.376,0.3763,0.3765,0.3753,0,0,0,0,0,0,0.2956,0.2983,0.3013,0.3096,0.3125,0.3248,0.3241,0.3255,0.3298,0.3299,0.3384,0.3397,0.3436,0.3527,0.3546,0.3577,0.3542,0.3758,0.3761,0.3764,0.3751,0.3755,0.3758,0,0,0,0,0,0.2946,0.3004,0.3014,0.3037,0.3164,0.325,0.3266,0.3309,0.33,0.333,0.3379,0.3394,0.356,0.3535,0.3557,0.3591,0.3756,0.376,0.3764,0.375,0.3754,0.3758,0,0,0,0,0,0,0.2924,0.3016,0.3028,0.3114,0.3174,0.3256,0.3296,0.3313,0.3377,0.3376,0.3427,0.3446,0.3526,0.3567,0.3536,0.3669,0.3658,0.3667,0.364,0.3645,0.3648,0.3637,0.3549,0,0,0,0,0,0.2928,0.299,0.3067,0.3136,0.3165,0.3225,0.3264,0.3291,0.3355,0.3381,0.3436,0.3498,0.3564,0.3606,0.3672,0.3757,0.3776,0.3791,0.3794,0.3797,0.3804,0.3851,0.3858,0.3779,0.3779,0.3779,0,0,0.294,0.2998,0.3034,0.3133,0.3182,0.3245,0.3246,0.3313,0.3359,0.3392,0.3473,0.3515,0.3588,0.3672,0.3712,0.3709,0.3829,0.3802,0.3803,0.3809,0.3855,0.3863,0.3869,0.3782,0.3781,0.3781,0,0,0.2992,0.3042,0.3104,0.3153,0.3227,0.3266,0.328,0.336,0.3388,0.3471,0.3496,0.3552,0.3666,0.3716,0.3756,0.3824,0.3841,0.3844,0.3863,0.3908,0.3914,0.392,0.3944,0.3952,0.3851,0.3851,0.3851,0,0.2997,0.3091,0.3134,0.3199,0.3242,0.3272,0.3335,0.3381,0.3472,0.3501,0.3496,0.3637,0.3688,0.3784,0.38,0.3832,0.385,0.3835,0.391,0.3916,0.3922,0.3945,0.3954,0.3851,0.3851,0.3851,0.3851,0,0.3093,0.3158,0.32,0.3286,0.3333,0.3397,0.345,0.3492,0.3515,0.3555,0.3638,0.3699,0.3777,0.3802,0.3825,0.3901,0.3896,0.3899,0.389,0.3929,0.3952,0.3961,0.3851,0.3851,0.3851,0.3851,0,0,0.3137,0.3245,0.3259,0.3298,0.3381,0.3432,0.3497,0.3571,0.3607,0.3668,0.3724,0.3817,0.382,0.3866,0.3895,0.3935,0.3984,0.3934,0.3936,0.3941,0.407,0.4067,0.4077,0.3995,0.3997,0.3998,0.4064,0,0.32,0.3316,0.3355,0.3451,0.3511,0.354,0.3596,0.3653,0.3691,0.3748,0.379,0.3856,0.3855,0.3882,0.3923,0.397,0.4011,0.3965,0.4047,0.405,0.4029,0.4089,0.4087,0.4146,0.4073,0.4075,0.4076,0,0.3289,0.335,0.3451,0.3525,0.3552,0.3602,0.3672,0.3726,0.3791,0.3816,0.3865,0.3891,0.3959,0.3944,0.4039,0.4007,0.4042,0.407,0.4074,0.4084,0.4065,0.41,0.4165,0.4174,0.409,0.4089,0.4088,0,0.331,0.3418,0.3492,0.3525,0.3613,0.3647,0.3685,0.3748,0.379,0.3852,0.3879,0.3948,0.3986,0.4039,0.4083,0.4068,0.4173,0.4162,0.4196,0.4195,0.4218,0.4216,0.4289,0.424,0.424,0.4239,0.4239,0,0.3376,0.3437,0.3503,0.3549,0.3618,0.3662,0.3729,0.3769,0.3824,0.3878,0.3907,0.3957,0.4012,0.4069,0.4103,0.4176,0.4193,0.4215,0.4224,0.4213,0.421,0.4237,0.4234,0.4242,0.4241,0.4241,0.424,0,0.3412,0.3459,0.3542,0.3617,0.3637,0.3685,0.375,0.3795,0.3833,0.3901,0.392,0.3981,0.4049,0.4097,0.4186,0.4209,0.4287,0.4295,0.4265,0.4269,0.43,0.4297,0.4394,0.4409,0.435,0.435,0.435,0,0.3451,0.3498,0.3578,0.3616,0.3654,0.3714,0.3757,0.3802,0.3844,0.392,0.3956,0.4026,0.4085,0.4193,0.4245,0.4313,0.4323,0.4352,0.4333,0.432,0.4323,0.432,0.4324,0.4355,0.4356,0.4356,0.4356,0,0.3515,0.3535,0.3595,0.3662,0.3711,0.3766,0.3822,0.3851,0.3906,0.3952,0.4022,0.4067,0.4156,0.4226,0.4298,0.4337,0.4356,0.4362,0.4373,0.4363,0.4343,0.4353,0.4273,0.436,0.4359,0.4359,0.4359,0.4359,0.3554,0.3597,0.3659,0.3724,0.377,0.3821,0.3867,0.391,0.3969,0.4044,0.4067,0.4139,0.4201,0.43,0.434,0.4397,0.4395,0.4412,0.4416,0.442,0.4419,0.4333,0.4411,0.4411,0.441,0.441,0.441,0,0.3619,0.366,0.3719,0.3795,0.3846,0.3857,0.3919,0.3961,0.4024,0.408,0.4136,0.4215,0.4282,0.4338,0.4407,0.4442,0.4452,0.4458,0.4457,0.4465,0.4417,0.44,0.4449,0.4449,0.4449,0.4449,0.4449,0.4449,0.3659,0.3732,0.3759,0.3855,0.3896,0.3966,0.4,0.4047,0.4091,0.4178,0.4233,0.4269,0.4325,0.4398,0.4459,0.4474,0.4498,0.4502,0.4519,0.4473,0.4469,0.4464,0.4449,0.4507,0.4507,0.4563,0.4563,0.4563]},{"header":{"parameterUnit":"m.s-1","parameterCategory":1,"la1":30.2991,"la2":30.254,"lo1":-89.0895,"lo2":-89.0444,"dy":0.0017,"dx":0.0017,"nx":28,"ny":28,"refTime":"2024-06-06T21:00:00:Z","depth":0,"parameterNumber":3,"parameterNumberName":"V-component_of_WINDS"},"data":[0,0,0,0,0,0,0,0,0,0,0,0,0,0,0,0,0,0,0,0,0,0,0,0,0,0,0,0,0,0,0,0,0,0,0,0,0,0,0,0,0,0,0,0,0,0,0,0,0,0,0,0,0,0,0,0,0,0,1.9867,1.9867,0,1.9907,1.9908,1.9908,1.9925,1.9925,1.9924,1.9924,1.9963,1.9964,1.9965,0,0,0,0,0,0,0,0,0,0,0,0,0,1.9798,1.98,1.9867,1.9867,1.9868,1.9907,1.9908,1.9908,1.9925,1.9925,1.9924,1.9924,1.9963,1.9964,1.9965,0,0,0,0,0,0,0,0,0,0,0,0,0,1.9832,1.98,1.9867,1.9881,1.9882,1.9907,1.9908,1.9909,1.9925,1.9925,1.9924,1.9924,1.9962,1.9964,1.9966,1.9979,0,0,1.9971,1.9971,0,0,0,0,0,0,0,0,1.983,1.9835,1.9878,1.988,1.9882,1.9911,1.9898,1.9932,1.9925,1.9909,1.9924,1.9924,1.9946,1.9949,1.9957,1.998,1.9982,1.9971,1.9972,1.9973,1.9973,0,0,0,0,0,0,0,1.9828,1.9833,1.9883,1.9879,1.9881,1.9883,1.9888,1.9904,1.9927,1.991,1.9911,1.9916,1.9947,1.9955,1.9958,1.9983,1.9971,1.9972,1.9973,1.9974,2.0016,2.0016,0,0,0,0,0,0,1.9824,1.9831,1.9882,1.9884,1.9855,1.9885,1.989,1.9902,1.9927,1.9931,1.9916,1.9917,1.9952,1.9956,1.9959,1.9974,1.9973,1.9974,1.9975,2.0016,2.0016,2.0016,0,0,0,0,0,0,1.9822,1.9828,1.988,1.9858,1.9865,1.9886,1.9899,1.9902,1.9911,1.9932,1.9936,1.9921,1.9952,1.9957,1.9973,1.9976,1.9975,1.9976,2.0016,2.0016,2.0016,2.0006,0,0,0,0,0,0,1.982,1.9828,1.9834,1.9858,1.9866,1.9895,1.9899,1.9903,1.9914,1.9915,1.9937,1.9941,1.9952,1.997,1.9975,1.9978,1.9978,2.0016,2.0016,2.0016,2.0006,2.0005,2.0005,0,0,0,0,0,1.9818,1.983,1.9835,1.9841,1.9875,1.9895,1.9899,1.9914,1.9914,1.992,1.9933,1.994,1.9975,1.9972,1.9977,1.9981,2.0015,2.0016,2.0016,2.0006,2.0006,2.0005,0,0,0,0,0,0,1.9806,1.9833,1.9839,1.9859,1.9875,1.9898,1.9906,1.9913,1.9928,1.9928,1.9944,1.9949,1.9963,1.9974,1.997,1.9993,1.9995,1.9997,1.9986,1.9986,1.9985,1.9982,1.9979,0,0,0,0,0,1.9805,1.9821,1.9844,1.9859,1.9867,1.9885,1.9894,1.9903,1.992,1.9926,1.9941,1.9955,1.9969,1.9978,1.9992,2.0007,2.0011,2.0012,2.0011,2.0011,2.0012,2.0018,2.0018,2.0017,2.0017,2.0017,0,0,1.9805,1.9822,1.9831,1.9857,1.987,1.9884,1.989,1.9905,1.9915,1.9928,1.9945,1.9955,1.9972,1.9987,1.9995,1.9996,2.0013,2.0011,2.0011,2.0012,2.0018,2.0018,2.0018,2.0017,2.0017,2.0017,0,0,1.9811,1.9826,1.984,1.9852,1.9872,1.9883,1.9886,1.9908,1.9915,1.9932,1.9941,1.9952,1.9977,1.9988,1.9997,2.0003,2.001,2.0007,2.0005,2.0011,2.0011,2.0012,2.0012,2.0013,2.0008,2.0008,2.0008,0,1.9808,1.9831,1.9845,1.9859,1.9869,1.9882,1.9894,1.9905,1.9928,1.9934,1.9936,1.9965,1.9977,1.9994,1.9995,2.0003,2.0005,2.0005,2.001,2.0011,2.0011,2.0012,2.0012,2.0008,2.0008,2.0008,2.0008,0,1.9824,1.9839,1.9848,1.9869,1.988,1.9893,1.9908,1.9917,1.9925,1.9935,1.995,1.9966,1.9982,1.9987,1.9994,2.0003,2.0004,2.0008,2.001,2.001,2.0011,2.0012,2.0007,2.0007,2.0007,2.0007,0,0,1.9826,1.9854,1.9856,1.9865,1.9886,1.9897,1.991,1.9926,1.9932,1.9947,1.9956,1.9975,1.9978,1.9988,1.9997,2.0002,2.0004,2.0005,2.0005,2.0003,2.0013,2.0009,2.001,2.0008,2.0008,2.0008,2.0011,0,1.9834,1.9858,1.987,1.9888,1.99,1.991,1.9921,1.9934,1.9943,1.9954,1.9964,1.9977,1.9981,1.9986,1.9992,2.0002,2.0006,2.0002,2.0015,2.0016,2.0011,2.001,2.0007,2.0009,2.0012,2.0012,2.0012,0,1.9847,1.9861,1.988,1.9897,1.9903,1.9912,1.9926,1.9937,1.9951,1.9957,1.9967,1.9975,1.9986,1.9987,2.0002,1.9999,2.0005,2.001,2.0011,2.0012,2.0014,2.0011,2.0011,2.0011,2.0013,2.0013,2.0013,0,1.9844,1.9867,1.9881,1.9889,1.9909,1.9915,1.9924,1.9938,1.9946,1.9958,1.9963,1.9976,1.9983,1.9992,2.0002,2.0002,2.0015,2.0017,2.0019,2.0018,2.0021,2.0021,2.0021,2.0026,2.0026,2.0026,2.0026,0,1.9851,1.9862,1.988,1.9888,1.99,1.9913,1.9923,1.9932,1.9944,1.9953,1.9962,1.997,1.9984,1.9993,2.0001,2.0011,2.0014,2.0018,2.002,2.0017,2.0016,2.0021,2.0021,2.0026,2.0026,2.0026,2.0026,0,1.985,1.9863,1.9878,1.9896,1.99,1.9908,1.9922,1.993,1.9939,1.995,1.9953,1.9967,1.9978,1.9989,2.0004,2.0009,2.0018,2.0021,2.0014,2.0015,2.0015,2.0015,2.0018,2.0018,2.0023,2.0023,2.0023,0,1.9854,1.9862,1.988,1.9887,1.9896,1.9907,1.9915,1.9927,1.9934,1.9949,1.9954,1.9966,1.9976,1.9992,2.0003,2.0014,2.0016,2.0017,2.0018,2.0014,2.0015,2.0014,2.0014,2.0016,2.0016,2.0016,2.0016,0,1.9859,1.9864,1.9875,1.9888,1.9897,1.9908,1.9919,1.9923,1.9937,1.9945,1.9956,1.9964,1.9978,1.9989,2.0,2.0008,2.0013,2.0015,2.0016,2.0013,2.0008,2.0009,2.0012,2.0015,2.0015,2.0015,2.0015,2.0015,1.9859,1.9866,1.9879,1.9891,1.99,1.9909,1.9917,1.9926,1.9936,1.9949,1.9955,1.9966,1.9977,1.9993,2.0,2.0007,2.0009,2.001,2.0011,2.0011,2.0009,2.0007,2.001,2.001,2.001,2.001,2.001,0,1.9863,1.9872,1.9882,1.9897,1.9905,1.991,1.9921,1.9928,1.9937,1.9947,1.9956,1.9968,1.9978,1.9989,1.9999,2.0002,2.0005,2.0005,2.0004,2.0005,2.0008,2.0006,2.0002,2.0002,2.0002,2.0002,2.0002,2.0002,1.9866,1.9878,1.9884,1.9899,1.9907,1.9918,1.9923,1.9931,1.9939,1.9952,1.996,1.9967,1.9977,1.9987,1.9996,1.9998,2.0001,2.0,2.0003,2.0005,2.0006,2.0006,2.0004,2.0,2.0,2.0,2.0,2.0]}]]